Other Surface Observations
Issued by NWS

Home | Current Version | Previous Version | Text Only | Print | Product List | Glossary On
Versions: 1 2 3 4 5 6 7 8 9 10 11 12 13 14 15 16 17 18 19 20 21 22 23 24 25 26 27 28 29 30 31 32 33 34 35 36 37 38 39 40 41 42 43 44 45 46 47 48 49 50
000
SXUS52 KTAE 300318
OSOTAE
OSOTAE
North Florida/South Alabama/Southwest Georgia Weather Roundup
National Weather Service Tallahassee Florida
1100 PM EDT TUE JUL 29 2014

Note: "fair" indicates few or no clouds below 12,000 feet with no
significant weather and/or obstructions to visibility.

!FLZ017-115-028-034-025-300400
...North Florida...

CITY           SKY/WX    TMP DP  RH WIND       PRES   REMARKS
TALLAHASSEE    PTCLDY    78  66  64 NW5       29.99R
APALACHICOLA   CLEAR     73  68  84 N3        29.99R
PERRY          CLEAR     72  68  88 CALM      29.97S
CROSS CITY       N/A     77  70  79 NW5       29.96S
HOMERVILLE     FAIR      73  66  78 CALM      29.97S
JACKSONVILLE   PTCLDY    78  64  61 NW8       29.93S
$$

!FLZ112-006-005-002-011-300400
...Florida Panhandle...

CITY           SKY/WX    TMP DP  RH WIND       PRES   REMARKS
MARIANNA       CLEAR     75  69  81 CALM      29.99R
BONIFAY        FAIR      70  69  97 CALM      30.01R
PANAMA CITY NW FAIR      74  68  81 CALM      29.99R
TYNDALL AFB    CLEAR     75  67  76 CALM      30.00R
TYND DRONE APT NOT AVBL
DE FUNIAK SPR  FAIR      74  67  77 N3        30.02R
EGLIN AFB      PTCLDY    77  65  67 N5        30.00R
DESTIN         CLEAR     83  64  52 N6        30.00R
HURLBURT       MOCLDY    77  63  61 N5        29.99R
CRESTVIEW      PTCLDY    73  66  78 N3        30.02R
PENSACOLA      PTCLDY    77  65  66 N5        30.00R
$$

!ALZ063-066-300400
...South Alabama...

CITY           SKY/WX    TMP DP  RH WIND       PRES   REMARKS
DOTHAN         MOCLDY    73  67  81 NW3       30.05R
OZARK CAIRNS   CLEAR     73  65  74 NW5       30.01R
FT RUCKER HELI CLEAR     74  62  66 MISG      30.00R
RUCKER HELI 3  FAIR      73  64  72 NW5       30.04R
RUCKER HELI 2  FAIR      72  65  78 NW3       30.01R
FLORALA APT    PTCLDY    75  64  68 N3        30.03R
ANDALUSIA      CLOUDY    79  64  60 N3        30.02R
TROY           CLEAR     70  63  78 CALM      30.03R
EUFALA         MOCLDY    69  65  86 NW3       30.00R
MOBILE         PTCLDY    75  69  81 N5        30.02R
$$

!GAZ120>161-300400
...Southwest and South Central Georgia...

CITY           SKY/WX    TMP DP  RH WIND       PRES   REMARKS
THOMASVILLE    FAIR      73  68  83 CALM      29.99R
BAINBRIDGE     CLEAR     79  64  61 N3        30.00R
MOODY AFB      CLEAR     74  69  82 N1        29.96S
VALDOSTA       CLEAR     74  61  63 CALM      29.97R
MOULTRIE       CLEAR     77  63  61 CALM      29.99S
BLAKELY        CLEAR     72  64  78 CALM      30.00S
ALBANY         CLEAR     74  62  66 CALM      30.00S
TIFTON         CLOUDY    77  61  56 NW5       29.98S
FITZGERALD     FAIR      77  62  59 NW3       30.00S
CORDELE        FAIR      73  63  71 CALM      30.00S
AMERICUS       FAIR      70  63  78 CALM      30.02R
$$

!GMZ750-755-770-775-300400
...Coastal and Buoy Obs...

STATION/POSITION TIME  TEMP    WIND        PRES    VSBY  WAVE
                       AIR SEA DIR/SP/G                  HT/PER
                 (UTC) (F)     (DEG/KT/KT) (MB)    (MI)  (FT/S)
KEATON BEACH     0300   81      CALM  /  2 1014.9R
CEDAR KEY        0300   84     310/  6/  8 1014.9S
C TOWER          0300   84     360/ 11/ 12 1015.2R
APALACHICOLA BUO 0300   84 85  320/ 10/ 14 1015.2S         3/ 6
PANAMA CITY BUOY 0250   83 85  320/ 10/ 12 1015.6R         3/ 6
MOBILE BUOY      0216   83 86  330/  8/ 10 1016.3R
ORANGE BCH AL BU 0300   84 84  350/  8/ 10 1015.8R         1/ 3
$$



USA.gov is the U.S. government's official web portal to all federal, state and local government web resources and services.